Regional Weather Roundup
Issued by NWS Charleston, SC

Current Version | Previous Version | Text Only | Print | Product List | Glossary Off
Versions: 1 2 3 4 5 6 7 8 9 10 11 12 13 14 15 16 17 18 19 20 21 22 23 24 25 26 27 28 29 30 31 32 33 34 35 36 37 38 39 40 41 42 43 44 45 46 47 48 49 50
000 ASUS42 KCHS 230727 RWRCHS REGIONAL WEATHER ROUNDUP NATIONAL WEATHER SERVICE CHARLESTON SC 300 AM EDT FRI JUN 23 2017 NOTE: "FAIR" INDICATES FEW OR NO CLOUDS BELOW 12,000 FEET WITH NO SIGNIFICANT WEATHER AND/OR OBSTRUCTIONS TO VISIBILITY. NOT ALL STATIONS ARE QUALITY CONTROLLED. USE DATA WITH CAUTION... ESPECIALLY DEWPOINT OBSERVATIONS. SCZ027-030-031-034>040-042>050-230800- ...SOUTHEAST SOUTH CAROLINA... CITY SKY/WX TMP DP RH WIND PRES REMARKS N CHARLESTON CLOUDY 78 75 90 S9 30.04F WATERFRONT PRK N/A 81 78 91 SW9 30.03F JOHNS ISLAND CLOUDY 81 77 89 S10 30.04F PINOPOLIS N/A 77 77 100 VRB2 29.98F MONCKS CORNER FAIR 73 73 100 S3 30.04F FOG SUMMERVILLE FAIR 75 73 94 CALM 30.05S BEAUFORT MCAS CLOUDY 80 77 90 S5 30.04F BEAUFORT ARPT PTSUNNY 81 75 83 S7 30.03F HILTON HEAD IS CLOUDY 81 77 89 S7G17 30.04F WALTERBORO CLOUDY 75 75 100 CALM 30.05F ALLENDALE CLOUDY 77 77 100 CALM 30.02F ...SOUTHERN MIDLANDS AND PEE DEE... CITY SKY/WX TMP DP RH WIND PRES REMARKS GEORGETOWN FAIR 77 75 94 CALM 30.05F KINGSTREE CLOUDY 75 73 94 CALM 30.04S ORANGEBURG CLOUDY 76 75 97 S6 30.05F BARNWELL CLOUDY 79 77 94 S5 30.03F AIKEN FAIR 73 73 100 S7 30.07F MANNING CLOUDY 77 77 100 SW17G23 30.04F COLUMBIA CLOUDY 79 74 84 S7 30.02F SUMTER CLOUDY 77 73 88 S8 30.01F FLORENCE CLOUDY 75 75 100 S6 30.04F MYRTLE BEACH NOT AVBL N MYRTLE BEACH CLOUDY 79 77 94 SW9 30.04F $$ GAZ063-065-086>088-099>101-113>116-118-119-134>141-150-230800- ...SOUTHEAST GEORGIA... CITY SKY/WX TMP DP RH WIND PRES REMARKS SAVANNAH ARPT PTCLDY 79 74 84 S8 30.05F HUNTER AAF CLOUDY 80 75 85 S5 30.02F FORT STEWART PTCLDY 77 74 93 SE3 30.02F STATESBORO PTCLDY 78 78 100 S5 30.03F SYLVANIA MOSUNNY 77 77 100 CALM 30.04F CLAXTON FAIR N/A N/A N/A CALM 30.04F ...CSRA...CENTRAL AND FAR SOUTHEAST GEORGIA... CITY SKY/WX TMP DP RH WIND PRES REMARKS THOMSON MOCLDY 76 73 90 W3 30.08S AUGUSTA-BUSH PTCLDY 79 75 87 S8 30.02F AUGUSTA-DANIEL MOCLDY 78 73 84 S6 30.04F SWAINSBORO CLOUDY 75 75 100 CALM 30.04F VIDALIA CLEAR 77 75 94 CALM 30.04F EASTMAN FAIR 75 75 100 CALM 30.05F HAZLEHURST FAIR 77 77 100 CALM 30.02F ALMA CLEAR 76 74 93 SE5 30.03F WAYCROSS NOT AVBL JESUP FAIR 75 72 88 CALM 30.04F FOG BAXLEY FAIR 77 77 100 CALM 30.03F BRUNSWICK CLEAR 81 77 89 S9 30.05F SAINT SIMONS CLEAR 82 75 79 S14G21 30.04F $$ SCZ027-028-034-036>038-045-046-048>050-GAZ119-141-230800- ...LAKE AND SUPPLEMENTAL COASTAL OBSERVATIONS... STATION/POSITION TIME TEMP WIND PRES WAVE SWELL AIR SEA DIR/SP/G HT/PER HT/PER/DIR (UTC) (F) (DEG/KT/KT) (MB) (FT/S) (FT/S/D) WINYAH BAY 0645 79 220/ 5 1017.0F LAKE MURRAY 0650 80 200/ 11/ 15 1015.9F ACE BASIN NERRS 0645 80 180/ 1 1018.0S FORT PULASKI 0700 80 83 200/ 7/ 14 1017.6 SAPELO ISLAND 0700 80 180/ 10 1017.0 $$ ANZ835-935-AMZ111-154-330-350-352-354-370-450-454-472-230800- ...C-MAN AND BUOY OBSERVATIONS... STATION/POSITION TIME TEMP WIND PRES WAVE SWELL AIR SEA DIR/SP/G HT/PER HT/PER/DIR (UTC) (F) (DEG/KT/KT) (MB) (FT/S) (FT/S/D) BUOY 41004 0710 81 81 200/ 14/ 16 1017.5 BUOY 41008 0650 81 82 170/ 16/ 19 1017.2F 4/ 5 2/ 80/ 9 FOLLY BEACH CMAN 0700 81 200/ 16/ 18 1018.1F CAPERS NEARSHORE 0708 85 82 210/ 16/ 19 1017.2F FRIPP NEARSHORE 0708 81 83 200/ 16/ 21 1016.7F STATION/POSITION TIME TEMP WIND PRES WAVE SWELL AIR SEA DIR/SP/G HT/PER HT/PER/DIR (UTC) (F) (DEG/KT/KT) (MB) (FT/S) (FT/S/D) 5E ST. MARYS GA 0700 81 N/A 4/ 5 FRYING PAN BUOY 0710 81 81 220/ 14/ 17 1017.0 BUOY 41025 0650 80 80 260/ 12/ 14 1016.9F 3/ 8 3/150/ 8 CAPE LOOKOUT NC 0700 79 230/ 7/ 10 1016.8F BUOY 41002 0650 80 82 200/ 10/ 14 1018.9F 4/ 8 3/130/ 8 BUOY 41010 0710 82 83 140/ 12/ 14 1018.0 ST AUGUSTINE FL 0700 77 78 190/ 6/ 7 1018.5F $$

USA.gov is the U.S. government's official web portal to all federal, state and local government web resources and services.